This is the latest recevied weather packets stored in our database for station/object OK2ZA-6. If no packets are shown the sender has not sent any weather packets the latest 10 day(s).
| Time | Temp. | Humidity | Pressure | Rain* | Wind** | Luminosity | Snow |
|---|---|---|---|---|---|---|---|
| 1788606004 | 20° C | 58% | 1019.7 hPa | 0 mm | - | - | - |
| 1788605404 | 20° C | 58% | 1019.7 hPa | 0 mm | - | - | - |
| 1788604805 | 20° C | 60% | 1019.6 hPa | 0 mm | - | - | - |
| 1788604205 | 20° C | 61% | 1019.7 hPa | 0 mm | - | - | - |
| 1788603604 | 19.44° C | 64% | 1019.6 hPa | 0 mm | - | - | - |
| 1788603004 | 19.44° C | 64% | 1019.8 hPa | 0 mm | - | - | - |
| 1788602404 | 19.44° C | 64% | 1020 hPa | 0 mm | - | - | - |
| 1788601804 | 19.44° C | 67% | 1019.9 hPa | 0 mm | - | - | - |
| 1788601204 | 18.33° C | 71% | 1019.9 hPa | 0 mm | - | - | - |
| 1788600605 | 18.33° C | 73% | 1019.9 hPa | 0 mm | - | - | - |
| 1788600004 | 17.22° C | 80% | 1020 hPa | 0 mm | - | - | - |
| 1788599405 | 16.67° C | 81% | 1020.1 hPa | 0 mm | - | - | - |
| 1788598804 | 16.67° C | 81% | 1020.1 hPa | 0 mm | - | - | - |
| 1788598204 | 16.11° C | 84% | 1020.2 hPa | 0 mm | - | - | - |
| 1788597604 | 15.56° C | 85% | 1020.2 hPa | 0 mm | - | - | - |
| 1788597004 | 15.56° C | 86% | 1020 hPa | 0 mm | - | - | - |
| 1788596404 | 15° C | 86% | 1020 hPa | 0 mm | - | - | - |
| 1788595804 | 15° C | 86% | 1019.9 hPa | 0 mm | - | - | - |
| 1788595204 | 14.44° C | 87% | 1019.7 hPa | 0 mm | - | - | - |
| 1788594605 | 14.44° C | 88% | 1019.5 hPa | 0 mm | - | - | - |
| 1788594004 | 14.44° C | 88% | 1019.3 hPa | 0 mm | - | - | - |
| 1788593404 | 14.44° C | 89% | 1019.3 hPa | 0.25 mm | - | - | - |
| 1788592819 | 14.44° C | 89% | 1018.5 hPa | 0.25 mm | - | - | - |
| 1788592204 | 14.44° C | 89% | 1018.7 hPa | 0.51 mm | - | - | - |
| 1788591605 | 13.89° C | 89% | 1018.8 hPa | 0.51 mm | - | - | - |
* Rain latest hour (hover to see other rain measurements)
** Current wind speed in m/s (hover to see current wind gust speed)